STARLINK-3981 (52687 NORAD) Tracking and Keplerian Element Data

This shows tracking and keplerian element data for the satellite.

Feedback or suggestion? Click here.




ElementValue
Catalog52687
NameSTARLINK-3981
Epoch Orbit130
Epoch Day192.91667824
Epoch Year2022
RAAN28.8224
Inclination53.2175
Eccentricity0.0001861
Argument of Perigee34.6713
Mean Anonmoly94.0162
Mean Motion15.53866715
Decay Rate-0.01059243
L11 52687U 22053AH 22192.91667824 -.01059243 00000+0 -17795-1 0 9994
L22 52687 53.2175 28.8224 0001861 34.6713 94.0162 15.53866715 1302

Live tracking and technical data element details for STARLINK-3981 (NORAD 52687). STARLINK-3981 can be tracked NOW for your location showing map with azimuth and elevation plus other details from your city location.

Track the satellite on the map from your city or location and see movement details for azimuth, elevation, latitude, longitude, range, height, and movement on the map or in text.







IsCatalogInMostPopularTable: catalog: 52687, numindb: 6
Update: records affected: 1



GetName: 52687 STARLINK-3981

Hit Count: updated at: Sun, 14 Aug 2022 00:16:12 GMT